DW7779 Weather Reports


Display with metric or nautical units.
time (UTC)temp
F
wind
direction
speed
MPH
gust
MPH
rain 1hr
in
rain 24hr
in
rain mn
in
humidity
%
barometer
mb
20240621110024 42 0.0 1.0 0.00 0.02 0.02 91 1027.0
20240621104520 42 0.0 0.0 0.00 0.02 0.02 92 1027.0
20240621103027 41 0.0 0.0 0.00 0.02 0.02 92 1026.9
20240621101536 41 0.0 0.0 0.00 0.02 0.02 91 1026.7
20240621100014 42 0.0 1.0 0.00 0.02 0.02 91 1026.3
20240621094514 42 0.0 0.0 0.00 0.02 0.02 90 1026.2
20240621093014 42 0.0 0.0 0.00 0.02 0.02 90 1026.1
20240621091509 42 0.0 0.0 0.00 0.02 0.02 88 1026.1
20240621090008 43 0.0 0.0 0.00 0.02 0.02 87 1025.8
20240621084505 43 0.0 0.0 0.00 0.02 0.02 85 1025.6
20240621083003 44 0.0 0.0 0.00 0.02 0.02 85 1025.2
20240621081600 45 0.0 0.0 0.00 0.02 0.02 84 1024.9
20240621080058 45 0.0 0.0 0.00 0.02 0.02 83 1024.7
20240621074559 46 0.0 0.0 0.00 0.02 0.02 81 1024.6
20240621073055 47 0.0 0.0 0.00 0.02 0.02 78 1024.3
20240621071556 48 0.0 0.0 0.00 0.02 0.02 76 1024.3
20240621070052 50 0.0 1.0 0.00 0.02 0.02 75 1024.1
20240621064558 51 0.0 4.0 0.00 0.02 0.02 73 1024.0
20240621063052 53 0.0 2.0 0.00 0.02 0.02 71 1023.9
20240621061547 54 0.0 2.0 0.00 0.02 0.02 70 1023.7
20240621060053 54 0.0 3.0 0.00 0.02 0.02 69 1023.4
20240621054546 55 1.0 6.0 0.00 0.02 0.02 66 1023.2
20240621053046 56 0.0 4.0 0.00 0.02 0.02 64 1023.2
20240621051551 56 1.0 5.0 0.00 0.02 0.02 62 1023.1
20240621050044 56 0.0 3.0 0.00 0.02 0.02 63 1023.1
20240621044542 56 0.0 3.0 0.00 0.02 0.02 61 1022.9
20240621043041 56 1.0 3.0 0.00 0.02 0.02 61 1022.9
20240621041543 57 0.0 3.0 0.00 0.02 0.02 60 1022.7
20240621040039 57 2.0 5.0 0.00 0.02 0.02 60 1022.7
20240621034541 57 0.0 5.0 0.00 0.02 0.02 63 1022.7
20240621033042 56 0.0 4.0 0.00 0.02 0.02 64 1022.9
20240621031536 56 0.0 3.0 0.00 0.02 0.02 65 1022.9
20240621030032 56 0.0 2.0 0.00 0.02 0.02 66 1022.9
20240621024533 56 0.0 4.0 0.00 0.02 0.02 67 1023.1
20240621023028 55 0.0 2.0 0.00 0.02 0.02 69 1023.1
20240621021523 55 1.0 6.0 0.00 0.02 0.02 73 1023.2
20240621020023 54 0.0 3.0 0.00 0.02 0.02 78 1023.3
20240621014515 53 0.0 2.0 0.00 0.02 0.02 82 1023.3
20240621013011 51 0.0 2.0 0.00 0.02 0.02 84 1023.4
20240621011507 50 0.0 2.0 0.00 0.02 0.02 87 1023.4
20240621010004 49 0.0 1.0 0.00 0.02 0.02 89 1023.6
20240621004603 48 0.0 1.0 0.00 0.02 0.02 91 1023.6
20240621003058 48 0.0 2.0 0.00 0.02 0.02 93 1023.6
20240621001559 47 0.0 2.0 0.00 0.02 0.02 94 1023.4
20240621000051 47 0.0 2.0 0.00 0.02 0.02 95 1023.3
20240620234549 46 0.0 2.0 0.00 0.02 0.02 96 1023.2
20240620233108 45 0.0 2.0 0.00 0.02 0.02 96 1023.1
20240620231547 44 0.0 1.0 0.00 0.02 0.02 96 1022.8
20240620230054 44 0.0 0.0 0.00 0.02 0.02 96 1022.6
20240620224540 44 0.0 0.0 0.00 0.02 0.02 96 1022.3
20240620223041 44 0.0 0.0 0.01 0.02 0.02 96 1022.0
20240620221534 44 0.0 0.0 0.01 0.02 0.02 96 1021.9
20240620220036 44 0.0 0.0 0.01 0.02 0.02 95 1021.8
20240620214528 43 0.0 0.0 0.01 0.02 0.02 95 1021.7
20240620213045 44 0.0 0.0 0.01 0.02 0.02 95 1021.5
20240620211523 43 0.0 0.0 0.01 0.02 0.02 96 1021.4
20240620210028 43 0.0 0.0 0.01 0.02 0.02 96 1021.1
20240620204519 43 0.0 0.0 0.01 0.02 0.02 96 1020.8
20240620203026 42 0.0 0.0 0.00 0.01 0.01 96 1020.6
20240620201541 41 0.0 0.0 0.00 0.01 0.01 95 1020.4
20240620200015 41 0.0 0.0 0.00 0.01 0.01 95 1020.2
20240620194511 41 0.0 0.0 0.00 0.01 0.01 95 1019.9
20240620193024 41 0.0 1.0 0.00 0.01 0.01 95 1019.8
20240620191505 41 0.0 1.0 0.00 0.01 0.01 95 1019.8
20240620190003 41 0.0 1.0 0.00 0.01 0.01 95 1019.6
20240620184501 41 0.0 0.0 0.00 0.01 0.01 95 1019.4
20240620183115 41 0.0 0.0 0.00 0.01 0.01 94 1019.4
20240620181600 42 0.0 0.0 0.00 0.01 0.01 95 1019.4
20240620180057 42 0.0 1.0 0.00 0.01 0.01 95 1019.4
20240620174556 42 0.0 0.0 0.00 0.02 0.01 95 1019.4
20240620173055 41 0.0 0.0 0.00 0.02 0.01 94 1019.3
20240620171555 42 0.0 0.0 0.00 0.02 0.01 94 1019.3
20240620170052 42 0.0 0.0 0.00 0.02 0.01 94 1019.1
20240620164550 42 0.0 1.0 0.00 0.02 0.01 94 1019.0
20240620163048 41 0.0 1.0 0.00 0.02 0.01 94 1018.9
20240620161547 42 0.0 1.0 0.00 0.02 0.01 93 1018.9
20240620160046 42 0.0 1.0 0.01 0.02 0.01 93 1018.7
20240620154606 42 0.0 0.0 0.01 0.02 0.01 93 1018.6
20240620153042 42 0.0 0.0 0.01 0.02 0.01 93 1018.6